#timestamp,LO_Frequency,Hit,StdDev 
1515420015.6,286046999.8,N
1515420035.4,286047002.4,N
1515420055.2,286047004.0,N
1515420075.1,286047004.3,N
1515420076.0,286047004.3,N
1515420095.8,286047004.2,N
1515420115.7,286047002.0,N
1515420135.5,286047001.8,N
1515420155.3,286047000.0,N
1515420175.2,286047000.1,N
1515420195.0,286047001.9,N
1515420195.9,286047001.9,N
1515420215.7,286047004.1,N
1515420235.6,286047001.9,N
1515420255.4,286047004.4,N
1515420275.3,286047001.9,N
1515420295.1,286047003.9,N
1515420296.0,286047003.9,N
1515420315.8,286047002.0,N
1515420335.7,286047001.6,N
1515420355.5,286047004.2,N
1515420375.4,286047001.3,N
1515420395.2,286047001.3,N
1515420415.0,286047004.2,N
1515420415.9,286047004.2,N
1515420435.8,286047003.3,N
1515420455.6,286047004.1,N
1515420475.4,286047003.9,N
1515420495.3,286047001.6,N
1515420515.1,286047001.7,N
1515420535.9,286047002.5,N
1515420555.7,286047002.7,N
1515420575.5,286047003.9,N
1515420595.4,286047002.2,N
1515420615.2,286047003.9,N
1515420635.0,286047004.2,Y
1515420636.0,286047004.2,P
1515420655.8,286047001.1,N
1515420675.6,286047002.4,N
1515420695.5,286047000.0,N
1515420715.3,286047000.9,N
1515420735.1,286046998.9,N
1515420755.9,286047000.9,N
1515420775.7,286047000.0,N
1515420795.6,286046998.4,N
1515420815.4,286046998.1,N
1515420835.2,286047000.8,N
1515420855.1,286046998.3,N
1515420856.0,286046998.3,N
1515420875.8,286047000.2,N
1515420895.7,286046999.9,N
1515420915.5,286046999.8,N
1515420935.3,286047002.7,N
1515420955.2,286047002.2,N
1515420975.0,286047000.2,N
1515420975.9,286047000.2,N
1515420995.7,286047002.7,N
1515421015.6,286046999.8,N
1515421035.4,286047000.6,N
1515421055.3,286047000.6,N
1515421075.1,286047002.3,N
1515421076.0,286047002.3,N
1515421095.8,286047001.9,N
1515421115.7,286047002.8,N
1515421135.5,286047000.5,N
1515421155.4,286046998.3,N
1515421175.2,286047001.2,N
1515421195.0,286047000.0,N
1515421195.9,286047000.0,N
1515421215.8,286047000.3,N
1515421235.6,286047000.7,N
1515421255.5,286046998.6,N
1515421275.3,286046999.9,N
1515421295.1,286047000.4,N
1515421315.9,286047001.2,N
1515421335.7,286047000.0,N
1515421355.5,286047000.1,N
1515421375.4,286047000.1,N
1515421395.2,286047001.0,N
1515421415.1,286047000.2,N
1515421416.0,286047000.2,N
1515421435.8,286046999.8,N
1515421455.6,286047001.0,N
1515421475.5,286047000.4,N
1515421495.3,286046998.3,N
1515421515.2,286047000.7,N
1515421535.9,286047000.6,N
1515421555.7,286047000.8,N
1515421575.6,286047000.4,N
1515421595.4,286046998.3,N
1515421615.2,286046998.3,N
1515421635.1,286047000.3,N
1515421636.0,286047000.3,N
1515421655.8,286046999.5,N
1515421675.7,286046998.6,N
1515421695.5,286046998.6,N
1515421715.3,286047000.9,N
1515421735.2,286047002.1,N
1515421755.0,286047000.4,N
1515421755.9,286047000.4,N
1515421775.8,286046999.9,N
1515421795.6,286047002.2,N
1515421815.4,286047000.6,N
1515421835.3,286046999.0,N
1515421855.1,286046998.8,N
1515421875.8,286047001.2,N
1515421895.7,286046998.7,N
1515421915.5,286046998.8,N
1515421935.4,286046998.5,N
1515421955.2,286046998.6,N
1515421975.0,286047000.1,N
1515421975.9,286047000.1,N
1515421995.8,286047000.4,N
1515422015.6,286046999.9,N
1515422035.5,286047000.6,N
1515422055.3,286047000.6,N
1515422075.1,286047002.4,N
1515422095.9,286047000.3,N
1515422115.7,286047000.3,N
1515422135.5,286046998.4,N
1515422155.4,286046996.6,Y
1515422175.2,286046998.3,P
1515422195.1,286047002.8,P
1515422196.0,286047002.8,N
1515422215.8,286047000.2,N
1515422235.6,286047000.7,N
1515422255.5,286046999.0,N
1515422275.3,286046998.5,N
1515422295.2,286046996.6,N
1515422315.9,286046999.4,N
1515422335.7,286046996.5,N
1515422355.6,286046998.6,N
1515422375.4,286047000.5,N
1515422395.2,286047000.5,N
1515422415.1,286047000.6,N
1515422416.0,286047000.6,N
1515422435.8,286046999.9,N
1515422455.7,286047000.6,N
1515422475.5,286047000.4,N
1515422525.4,286046999.0,E
1515422535.3,286046998.7,N
1515422555.1,286047000.7,P
1515422575.9,286046998.6,N
1515422595.7,286047001.0,N
1515422615.5,286047001.0,N
1515422635.4,286047001.6,N
1515422655.2,286047000.4,N
1515422675.1,286047001.2,N
1515422676.0,286047001.2,N
1515422695.8,286046999.7,N
1515422715.6,286046999.9,N
1515422735.5,286046999.9,N
1515422755.3,286046999.0,N
1515422775.2,286047001.1,N
1515422795.9,286047000.9,N
1515422815.7,286046998.6,N
1515422835.6,286046998.1,N
1515422855.4,286047000.0,N
1515422875.2,286047002.6,N
1515422895.1,286046998.1,N
1515422896.0,286046998.1,N
1515422915.8,286046999.4,N
1515422935.7,286046999.3,N
1515422955.5,286046998.7,N
1515422975.3,286046998.3,N
1515422995.2,286046999.6,N
1515423015.0,286046993.5,Y
1515423015.9,286046993.5,P
1515423035.8,286046991.7,N
1515423055.6,286046993.3,N
1515423075.4,286046994.7,N
1515423095.3,286046994.4,N
1515423115.1,286046993.4,N
1515423135.9,286046995.6,N
1515423155.7,286046996.0,N
1515423175.5,286046995.0,N
1515423195.4,286046997.3,N
1515423215.2,286046997.2,N
1515423235.0,286046996.6,N
1515423235.9,286046996.6,N
1515423255.8,286046997.3,N
1515423275.6,286046998.4,N
1515423295.5,286046998.9,N
1515423315.3,286046996.9,N
1515423335.1,286046996.7,N
1515423355.9,286046999.5,N
1515423375.7,286046998.1,N
1515423395.5,286046998.8,N
1515423415.4,286046999.0,N
1515423435.2,286047000.3,N
1515423455.1,286046999.2,N
1515423456.0,286046999.2,N
1515423475.8,286046999.4,N
1515423495.6,286046998.3,N
1515423515.5,286046999.5,N
1515423535.3,286046996.5,N
1515423555.2,286046999.6,N
1515423575.9,286046996.5,N
1515423595.7,286046997.1,N
